Location: Invercargill
(46.4000°S, 168.3500°E)
Time: 02:00:21
(UTC+13:00)

Cosmos 2322 - Pass Details

Date: 07 October 2021
Orbit: 840 x 855 km, 71.0° (Epoch: 24 October)

Event Time Altitude Azimuth Distance (km) Brightness Sun altitude
Rises 21:24:32 0° 203° (SSW) 3,437 7.7 -14.2°
Reaches altitude 10° 21:27:09 10° 196° (SSW) 2,498 6.7 -14.7°
Maximum altitude 21:32:34 41° 125° (SE) 1,218 4.3 -15.5°
Enters shadow 21:35:26 25° 71° (ENE) 1,677 4.6 -15.9°
